Year,Month,Day,Hour,Minute,Value (Times are PST for temperature in C)
2017,08,07,00,00,17.20
2017,08,07,00,01,17.20
2017,08,07,00,02,17.10
2017,08,07,00,03,17.10
2017,08,07,00,04,17.10
2017,08,07,00,05,17.10
2017,08,07,00,06,17.10
2017,08,07,00,07,17.00
2017,08,07,00,08,17.00
2017,08,07,00,09,16.90
2017,08,07,00,10,16.90
2017,08,07,00,11,16.90
2017,08,07,00,12,16.90
2017,08,07,00,13,16.90
2017,08,07,00,14,16.90
2017,08,07,00,15,16.90
2017,08,07,00,16,16.90
2017,08,07,00,17,16.90
2017,08,07,00,18,17.00
2017,08,07,00,19,17.00
2017,08,07,00,20,17.00
2017,08,07,00,21,17.00
2017,08,07,00,22,17.10
2017,08,07,00,23,17.10
2017,08,07,00,24,17.10
2017,08,07,00,25,17.10
2017,08,07,00,26,17.20
2017,08,07,00,27,17.20
2017,08,07,00,28,17.20
2017,08,07,00,29,17.30
2017,08,07,00,30,17.30
2017,08,07,00,31,17.30
2017,08,07,00,32,17.40
2017,08,07,00,33,17.40
2017,08,07,00,34,17.40
2017,08,07,00,35,17.50
2017,08,07,00,36,17.50
2017,08,07,00,37,17.50
2017,08,07,00,38,17.60
2017,08,07,00,39,17.60
2017,08,07,00,40,17.60
2017,08,07,00,41,17.60
2017,08,07,00,42,17.70
2017,08,07,00,43,17.70
2017,08,07,00,44,17.70
2017,08,07,00,45,17.70
2017,08,07,00,46,17.70
2017,08,07,00,47,17.80
2017,08,07,00,48,17.80
2017,08,07,00,49,17.80
2017,08,07,00,50,17.80
2017,08,07,00,51,17.80
2017,08,07,00,52,17.80
2017,08,07,00,53,17.80
2017,08,07,00,54,17.80
2017,08,07,00,55,17.80
2017,08,07,00,56,17.80
2017,08,07,00,57,17.80
2017,08,07,00,58,17.80
2017,08,07,00,59,17.80
2017,08,07,01,00,17.80
2017,08,07,01,01,17.80
2017,08,07,01,02,17.80
2017,08,07,01,03,17.80
2017,08,07,01,04,17.80
2017,08,07,01,05,17.80
2017,08,07,01,06,17.80
2017,08,07,01,07,17.80
2017,08,07,01,08,17.80
2017,08,07,01,09,17.80
2017,08,07,01,10,17.70
2017,08,07,01,11,17.70
2017,08,07,01,12,17.70
2017,08,07,01,13,17.70
2017,08,07,01,14,17.70
2017,08,07,01,15,17.70
2017,08,07,01,16,17.70
2017,08,07,01,17,17.70
2017,08,07,01,18,17.70
2017,08,07,01,19,17.70
2017,08,07,01,20,17.60
2017,08,07,01,21,17.60
2017,08,07,01,22,17.60
2017,08,07,01,23,17.60
2017,08,07,01,24,17.60
2017,08,07,01,25,17.60
2017,08,07,01,26,17.50
2017,08,07,01,27,17.50
2017,08,07,01,28,17.50
2017,08,07,01,29,17.40
2017,08,07,01,30,17.40
2017,08,07,01,31,17.40
2017,08,07,01,32,17.40
2017,08,07,01,33,17.40
2017,08,07,01,34,17.30
2017,08,07,01,35,17.30
2017,08,07,01,36,17.30
2017,08,07,01,37,17.30
2017,08,07,01,38,17.30
2017,08,07,01,39,17.30
2017,08,07,01,40,17.20
2017,08,07,01,41,17.20
2017,08,07,01,42,17.20
2017,08,07,01,43,17.20
2017,08,07,01,44,17.20
2017,08,07,01,45,17.10
2017,08,07,01,46,17.10
2017,08,07,01,47,17.10
2017,08,07,01,48,17.00
2017,08,07,01,49,17.00
2017,08,07,01,50,16.90
2017,08,07,01,51,16.90
2017,08,07,01,52,16.90
2017,08,07,01,53,16.90
2017,08,07,01,54,16.80
2017,08,07,01,55,16.80
2017,08,07,01,56,16.80
2017,08,07,01,57,16.80
2017,08,07,01,58,16.80
2017,08,07,01,59,16.80
2017,08,07,02,00,16.90
2017,08,07,02,01,16.90
2017,08,07,02,02,16.90
2017,08,07,02,03,16.90
2017,08,07,02,04,16.80
2017,08,07,02,05,16.80
2017,08,07,02,06,16.80
2017,08,07,02,07,16.80
2017,08,07,02,08,16.80
2017,08,07,02,09,16.80
2017,08,07,02,10,16.80
2017,08,07,02,11,16.80
2017,08,07,02,12,16.80
2017,08,07,02,13,16.80
2017,08,07,02,14,16.80
2017,08,07,02,15,16.80
2017,08,07,02,16,16.80
2017,08,07,02,17,16.80
2017,08,07,02,18,16.80
2017,08,07,02,19,16.80
2017,08,07,02,20,16.80
2017,08,07,02,21,16.80
2017,08,07,02,22,16.80
2017,08,07,02,23,16.70
2017,08,07,02,24,16.70
2017,08,07,02,25,16.70
2017,08,07,02,26,16.70
2017,08,07,02,27,16.70
2017,08,07,02,28,16.60
2017,08,07,02,29,16.60
2017,08,07,02,30,16.60
2017,08,07,02,31,16.60
2017,08,07,02,32,16.60
2017,08,07,02,33,16.60
2017,08,07,02,34,16.60
2017,08,07,02,35,16.60
2017,08,07,02,36,16.60
2017,08,07,02,37,16.60
2017,08,07,02,38,16.60
2017,08,07,02,39,16.50
2017,08,07,02,40,16.50
2017,08,07,02,41,16.50
2017,08,07,02,42,16.50
2017,08,07,02,43,16.50
2017,08,07,02,44,16.50
2017,08,07,02,45,16.40
2017,08,07,02,46,16.40
2017,08,07,02,47,16.40
2017,08,07,02,48,16.40
2017,08,07,02,49,16.40
2017,08,07,02,50,16.30
2017,08,07,02,51,16.30
2017,08,07,02,52,16.30
2017,08,07,02,53,16.30
2017,08,07,02,54,16.30
2017,08,07,02,55,16.30
2017,08,07,02,56,16.30
2017,08,07,02,57,16.30
2017,08,07,02,58,16.30
2017,08,07,02,59,16.30
2017,08,07,03,00,16.30
2017,08,07,03,01,16.30
2017,08,07,03,02,16.20
2017,08,07,03,03,16.20
2017,08,07,03,04,16.20
2017,08,07,03,05,16.20
2017,08,07,03,06,16.20
2017,08,07,03,07,16.20
2017,08,07,03,08,16.20
2017,08,07,03,09,16.10
2017,08,07,03,10,16.10
2017,08,07,03,11,16.10
2017,08,07,03,12,16.10
2017,08,07,03,13,16.10
2017,08,07,03,14,16.10
2017,08,07,03,15,16.00
2017,08,07,03,16,16.00
2017,08,07,03,17,16.00
2017,08,07,03,18,16.00
2017,08,07,03,19,16.00
2017,08,07,03,20,15.90
2017,08,07,03,21,15.90
2017,08,07,03,22,15.90
2017,08,07,03,23,15.90
2017,08,07,03,24,15.90
2017,08,07,03,25,15.90
2017,08,07,03,26,15.90
2017,08,07,03,27,15.80
2017,08,07,03,28,15.80
2017,08,07,03,29,15.80
2017,08,07,03,30,15.80
2017,08,07,03,31,15.80
2017,08,07,03,32,15.80
2017,08,07,03,33,15.80
2017,08,07,03,34,15.80
2017,08,07,03,35,15.70
2017,08,07,03,36,15.70
2017,08,07,03,37,15.70
2017,08,07,03,38,15.70
2017,08,07,03,39,15.70
2017,08,07,03,40,15.70
2017,08,07,03,41,15.70
2017,08,07,03,42,15.70
2017,08,07,03,43,15.70
2017,08,07,03,44,15.70
2017,08,07,03,45,15.70
2017,08,07,03,46,15.60
2017,08,07,03,47,15.60
2017,08,07,03,48,15.60
2017,08,07,03,49,15.60
2017,08,07,03,50,15.60
2017,08,07,03,51,15.60
2017,08,07,03,52,15.60
2017,08,07,03,53,15.60
2017,08,07,03,54,15.60
2017,08,07,03,55,15.60
2017,08,07,03,56,15.60
2017,08,07,03,57,15.60
2017,08,07,03,58,15.60
2017,08,07,03,59,15.60
2017,08,07,04,00,15.60
2017,08,07,04,01,15.60
2017,08,07,04,02,15.60
2017,08,07,04,03,15.60
2017,08,07,04,04,15.50
2017,08,07,04,05,15.50
2017,08,07,04,06,15.50
2017,08,07,04,07,15.50
2017,08,07,04,08,15.50
2017,08,07,04,09,15.40
2017,08,07,04,10,15.40
2017,08,07,04,11,15.40
2017,08,07,04,12,15.40
2017,08,07,04,13,15.30
2017,08,07,04,14,15.30
2017,08,07,04,15,15.30
2017,08,07,04,16,15.30
2017,08,07,04,17,15.30
2017,08,07,04,18,15.30
2017,08,07,04,19,15.30
2017,08,07,04,20,15.30
2017,08,07,04,21,15.30
2017,08,07,04,22,15.30
2017,08,07,04,23,15.30
2017,08,07,04,24,15.30
2017,08,07,04,25,15.30
2017,08,07,04,26,15.30
2017,08,07,04,27,15.30
2017,08,07,04,28,15.30
2017,08,07,04,29,15.30
2017,08,07,04,30,15.20
2017,08,07,04,31,15.20
2017,08,07,04,32,15.20
2017,08,07,04,33,15.20
2017,08,07,04,34,15.20
2017,08,07,04,35,15.20
2017,08,07,04,36,15.20
2017,08,07,04,37,15.10
2017,08,07,04,38,15.10
2017,08,07,04,39,15.10
2017,08,07,04,40,15.10
2017,08,07,04,41,15.10
2017,08,07,04,42,15.10
2017,08,07,04,43,15.10
2017,08,07,04,44,15.00
2017,08,07,04,45,15.00
2017,08,07,04,46,15.00
2017,08,07,04,47,15.00
2017,08,07,04,48,14.90
2017,08,07,04,49,14.90
2017,08,07,04,50,14.90
2017,08,07,04,51,14.90
2017,08,07,04,52,14.90
2017,08,07,04,53,14.90
2017,08,07,04,54,14.90
2017,08,07,04,55,14.90
2017,08,07,04,56,14.90
2017,08,07,04,57,14.90
2017,08,07,04,58,14.90
2017,08,07,04,59,14.90
2017,08,07,05,00,14.90
2017,08,07,05,01,14.90
2017,08,07,05,02,14.90
2017,08,07,05,03,14.90
2017,08,07,05,04,14.90
2017,08,07,05,05,14.90
2017,08,07,05,06,14.90
2017,08,07,05,07,14.90
2017,08,07,05,08,14.90
2017,08,07,05,09,14.80
2017,08,07,05,10,14.80
2017,08,07,05,11,14.80
2017,08,07,05,12,14.80
2017,08,07,05,13,14.80
2017,08,07,05,14,14.80
2017,08,07,05,15,14.80
2017,08,07,05,16,14.80
2017,08,07,05,17,14.80
2017,08,07,05,18,14.80
2017,08,07,05,19,14.80
2017,08,07,05,20,14.80
2017,08,07,05,21,14.80
2017,08,07,05,22,14.70
2017,08,07,05,23,14.70
2017,08,07,05,24,14.70
2017,08,07,05,25,14.70
2017,08,07,05,26,14.70
2017,08,07,05,27,14.70
2017,08,07,05,28,14.70
2017,08,07,05,29,14.70
2017,08,07,05,30,14.70
2017,08,07,05,31,14.70
2017,08,07,05,32,14.70
2017,08,07,05,33,14.70
2017,08,07,05,34,14.70
2017,08,07,05,35,14.70
2017,08,07,05,36,14.70
2017,08,07,05,37,14.70
2017,08,07,05,38,14.60
2017,08,07,05,39,14.60
2017,08,07,05,40,14.60
2017,08,07,05,41,14.60
2017,08,07,05,42,14.60
2017,08,07,05,43,14.60
2017,08,07,05,44,14.60
2017,08,07,05,45,14.60
2017,08,07,05,46,14.60
2017,08,07,05,47,14.60
2017,08,07,05,48,14.60
2017,08,07,05,49,14.60
2017,08,07,05,50,14.50
2017,08,07,05,51,14.50
2017,08,07,05,52,14.50
2017,08,07,05,53,14.50
2017,08,07,05,54,14.50
2017,08,07,05,55,14.50
2017,08,07,05,56,14.50
2017,08,07,05,57,14.50
2017,08,07,05,58,14.40
2017,08,07,05,59,14.40
2017,08,07,06,00,14.40
2017,08,07,06,01,14.40
2017,08,07,06,02,14.40
2017,08,07,06,03,14.40
2017,08,07,06,04,14.40
2017,08,07,06,05,14.40
2017,08,07,06,06,14.40
2017,08,07,06,07,14.40
2017,08,07,06,08,14.30
2017,08,07,06,09,14.30
2017,08,07,06,10,14.30
2017,08,07,06,11,14.30
2017,08,07,06,12,14.30
2017,08,07,06,13,14.30
2017,08,07,06,14,14.30
2017,08,07,06,15,14.30
2017,08,07,06,16,14.30
2017,08,07,06,17,14.30
2017,08,07,06,18,14.30
2017,08,07,06,19,14.30
2017,08,07,06,20,14.30
2017,08,07,06,21,14.30
2017,08,07,06,22,14.30
2017,08,07,06,23,14.30
2017,08,07,06,24,14.30
2017,08,07,06,25,14.30
2017,08,07,06,26,14.30
2017,08,07,06,27,14.30
2017,08,07,06,28,14.30
2017,08,07,06,29,14.30
2017,08,07,06,30,14.30
2017,08,07,06,31,14.30
2017,08,07,06,32,14.30
2017,08,07,06,33,14.30
2017,08,07,06,34,14.30
2017,08,07,06,35,14.30
2017,08,07,06,36,14.30
2017,08,07,06,37,14.30
2017,08,07,06,38,14.30
2017,08,07,06,39,14.30
2017,08,07,06,40,14.30
2017,08,07,06,41,14.30
2017,08,07,06,42,14.30
2017,08,07,06,43,14.30
2017,08,07,06,44,14.30
2017,08,07,06,45,14.30
2017,08,07,06,46,14.30
2017,08,07,06,47,14.30
2017,08,07,06,48,14.30
2017,08,07,06,49,14.30
2017,08,07,06,50,14.30
2017,08,07,06,51,14.30
2017,08,07,06,52,14.30
2017,08,07,06,53,14.40
2017,08,07,06,54,14.40
2017,08,07,06,55,14.40
2017,08,07,06,56,14.40
2017,08,07,06,57,14.40
2017,08,07,06,58,14.40
2017,08,07,06,59,14.40
2017,08,07,07,00,14.40
2017,08,07,07,01,14.40
2017,08,07,07,02,14.50
2017,08,07,07,03,14.50
2017,08,07,07,04,14.50
2017,08,07,07,05,14.50
2017,08,07,07,06,14.50
2017,08,07,07,07,14.60
2017,08,07,07,08,14.60
2017,08,07,07,09,14.60
2017,08,07,07,10,14.60
2017,08,07,07,11,14.60
2017,08,07,07,12,14.60
2017,08,07,07,13,14.60
2017,08,07,07,14,14.60
2017,08,07,07,15,14.60
2017,08,07,07,16,14.70
2017,08,07,07,17,14.70
2017,08,07,07,18,14.70
2017,08,07,07,19,14.70
2017,08,07,07,20,14.70
2017,08,07,07,21,14.70
2017,08,07,07,22,14.70
2017,08,07,07,23,14.70
2017,08,07,07,24,14.70
2017,08,07,07,25,14.80
2017,08,07,07,26,14.80
2017,08,07,07,27,14.80
2017,08,07,07,28,14.80
2017,08,07,07,29,14.80
2017,08,07,07,30,14.80
2017,08,07,07,31,14.80
2017,08,07,07,32,14.90
2017,08,07,07,33,14.90
2017,08,07,07,34,14.90
2017,08,07,07,35,14.90
2017,08,07,07,36,14.90
2017,08,07,07,37,14.90
2017,08,07,07,38,14.90
2017,08,07,07,39,14.90
2017,08,07,07,40,15.00
2017,08,07,07,41,15.00
2017,08,07,07,42,15.00
2017,08,07,07,43,15.00
2017,08,07,07,44,15.10
2017,08,07,07,45,15.10
2017,08,07,07,46,15.10
2017,08,07,07,47,15.10
2017,08,07,07,48,15.10
2017,08,07,07,49,15.20
2017,08,07,07,50,15.20
2017,08,07,07,51,15.20
2017,08,07,07,52,15.20
2017,08,07,07,53,15.20
2017,08,07,07,54,15.20
2017,08,07,07,55,15.20
2017,08,07,07,56,15.20
2017,08,07,07,57,15.30
2017,08,07,07,58,15.30
2017,08,07,07,59,15.30
2017,08,07,08,00,15.30
2017,08,07,08,01,15.30
2017,08,07,08,02,15.40
2017,08,07,08,03,15.40
2017,08,07,08,04,15.40
2017,08,07,08,05,15.40
2017,08,07,08,06,15.50
2017,08,07,08,07,15.50
2017,08,07,08,08,15.60
2017,08,07,08,09,15.60
2017,08,07,08,10,15.60
2017,08,07,08,11,15.60
2017,08,07,08,12,15.70
2017,08,07,08,13,15.70
2017,08,07,08,14,15.70
2017,08,07,08,15,15.70
2017,08,07,08,16,15.80
2017,08,07,08,17,15.80
2017,08,07,08,18,15.80
2017,08,07,08,19,15.80
2017,08,07,08,20,15.80
2017,08,07,08,21,15.90
2017,08,07,08,22,15.90
2017,08,07,08,23,15.90
2017,08,07,08,24,15.90
2017,08,07,08,25,15.90
2017,08,07,08,26,15.90
2017,08,07,08,27,15.90
2017,08,07,08,28,15.90
2017,08,07,08,29,15.90
2017,08,07,08,30,16.00
2017,08,07,08,31,16.00
2017,08,07,08,32,16.00
2017,08,07,08,33,16.00
2017,08,07,08,34,16.10
2017,08,07,08,35,16.10
2017,08,07,08,36,16.10
2017,08,07,08,37,16.10
2017,08,07,08,38,16.10
2017,08,07,08,39,16.10
2017,08,07,08,40,16.10
2017,08,07,08,41,16.20
2017,08,07,08,42,16.20
2017,08,07,08,43,16.20
2017,08,07,08,44,16.20
2017,08,07,08,45,16.20
2017,08,07,08,46,16.20
2017,08,07,08,47,16.20
2017,08,07,08,48,16.30
2017,08,07,08,49,16.30
2017,08,07,08,50,16.30
2017,08,07,08,51,16.30
2017,08,07,08,52,16.30
2017,08,07,08,53,16.40
2017,08,07,08,54,16.40
2017,08,07,08,55,16.40
2017,08,07,08,56,16.40
2017,08,07,08,57,16.40
2017,08,07,08,58,16.40
2017,08,07,08,59,16.50
2017,08,07,09,00,16.50
2017,08,07,09,01,16.50
2017,08,07,09,02,16.60
2017,08,07,09,03,16.60
2017,08,07,09,04,16.60
2017,08,07,09,05,16.60
2017,08,07,09,06,16.60
2017,08,07,09,07,16.60
2017,08,07,09,08,16.60
2017,08,07,09,09,16.70
2017,08,07,09,10,16.70
2017,08,07,09,11,16.70
2017,08,07,09,12,16.70
2017,08,07,09,13,16.80
2017,08,07,09,14,16.80
2017,08,07,09,15,16.80
2017,08,07,09,16,16.80
2017,08,07,09,17,16.80
2017,08,07,09,18,16.80
2017,08,07,09,19,16.80
2017,08,07,09,20,16.80
2017,08,07,09,21,16.80
2017,08,07,09,22,16.80
2017,08,07,09,23,16.90
2017,08,07,09,24,16.90
2017,08,07,09,25,16.90
2017,08,07,09,26,16.90
2017,08,07,09,27,17.00
2017,08,07,09,28,17.00
2017,08,07,09,29,17.00
2017,08,07,09,30,17.10
2017,08,07,09,31,17.10
2017,08,07,09,32,17.10
2017,08,07,09,33,17.10
2017,08,07,09,34,17.20
2017,08,07,09,35,17.20
2017,08,07,09,36,17.30
2017,08,07,09,37,17.30
2017,08,07,09,38,17.40
2017,08,07,09,39,17.40
2017,08,07,09,40,17.50
2017,08,07,09,41,17.50
2017,08,07,09,42,17.60
2017,08,07,09,43,17.60
2017,08,07,09,44,17.60
2017,08,07,09,45,17.70
2017,08,07,09,46,17.70
2017,08,07,09,47,17.70
2017,08,07,09,48,17.70
2017,08,07,09,49,17.70
2017,08,07,09,50,17.70
2017,08,07,09,51,17.70
2017,08,07,09,52,17.60
2017,08,07,09,53,17.60
2017,08,07,09,54,17.70
2017,08,07,09,55,17.70
2017,08,07,09,56,17.70
2017,08,07,09,57,17.80
2017,08,07,09,58,17.70
2017,08,07,09,59,17.70
2017,08,07,10,00,17.70
2017,08,07,10,01,17.70
2017,08,07,10,02,17.70
2017,08,07,10,03,17.70
2017,08,07,10,04,17.70
2017,08,07,10,05,17.70
2017,08,07,10,06,17.70
2017,08,07,10,07,17.70
2017,08,07,10,08,17.70
2017,08,07,10,09,17.70
2017,08,07,10,10,17.70
2017,08,07,10,11,17.70
2017,08,07,10,12,17.70
2017,08,07,10,13,17.70
2017,08,07,10,14,17.70
2017,08,07,10,15,17.70
2017,08,07,10,16,17.70
2017,08,07,10,17,17.70
2017,08,07,10,18,17.70
2017,08,07,10,19,17.70
2017,08,07,10,20,17.70
2017,08,07,10,21,17.70
2017,08,07,10,22,17.70
2017,08,07,10,23,17.60
2017,08,07,10,24,17.60
2017,08,07,10,25,17.70
2017,08,07,10,26,17.60
2017,08,07,10,27,17.60
2017,08,07,10,28,17.60
2017,08,07,10,29,17.50
2017,08,07,10,30,17.50
2017,08,07,10,31,17.50
2017,08,07,10,32,17.50
2017,08,07,10,33,17.40
2017,08,07,10,34,17.40
2017,08,07,10,35,17.50
2017,08,07,10,36,17.50
2017,08,07,10,37,17.50
2017,08,07,10,38,17.50
2017,08,07,10,39,17.50
2017,08,07,10,40,17.60
2017,08,07,10,41,17.60
2017,08,07,10,42,17.70
2017,08,07,10,43,17.70
2017,08,07,10,44,17.80
2017,08,07,10,45,17.90
2017,08,07,10,46,17.90
2017,08,07,10,47,17.90
2017,08,07,10,48,18.00
2017,08,07,10,49,18.00
2017,08,07,10,50,18.10
2017,08,07,10,51,18.20
2017,08,07,10,52,18.20
2017,08,07,10,53,18.30
2017,08,07,10,54,18.30
2017,08,07,10,55,18.40
2017,08,07,10,56,18.40
2017,08,07,10,57,18.40
2017,08,07,10,58,18.40
2017,08,07,10,59,18.40
2017,08,07,11,00,18.30
2017,08,07,11,01,18.30
2017,08,07,11,02,18.30
2017,08,07,11,03,18.30
2017,08,07,11,04,18.30
2017,08,07,11,05,18.30
2017,08,07,11,06,18.20
2017,08,07,11,07,18.20
2017,08,07,11,08,18.20
2017,08,07,11,09,18.20
2017,08,07,11,10,18.20
2017,08,07,11,11,18.20
2017,08,07,11,12,18.20
2017,08,07,11,13,18.20
2017,08,07,11,14,18.20
2017,08,07,11,15,18.20
2017,08,07,11,16,18.20
2017,08,07,11,17,18.20
2017,08,07,11,18,18.20
2017,08,07,11,19,18.30
2017,08,07,11,20,18.40
2017,08,07,11,21,18.40
2017,08,07,11,22,18.50
2017,08,07,11,23,18.50
2017,08,07,11,24,18.60
2017,08,07,11,25,18.70
2017,08,07,11,26,18.70
2017,08,07,11,27,18.80
2017,08,07,11,28,18.80
2017,08,07,11,29,18.80
2017,08,07,11,30,18.80
2017,08,07,11,31,18.80
2017,08,07,11,32,18.80
2017,08,07,11,33,18.90
2017,08,07,11,34,19.00
2017,08,07,11,35,19.10
2017,08,07,11,36,19.10
2017,08,07,11,37,19.20
2017,08,07,11,38,19.30
2017,08,07,11,39,19.30
2017,08,07,11,40,19.30
2017,08,07,11,41,19.20
2017,08,07,11,42,19.20
2017,08,07,11,43,19.20
2017,08,07,11,44,19.20
2017,08,07,11,45,19.20
2017,08,07,11,46,19.20
2017,08,07,11,47,19.20
2017,08,07,11,48,19.20
2017,08,07,11,49,19.30
2017,08,07,11,50,19.30
2017,08,07,11,51,19.30
2017,08,07,11,52,19.40
2017,08,07,11,53,19.40
2017,08,07,11,54,19.40
2017,08,07,11,55,19.40
2017,08,07,11,56,19.40
2017,08,07,11,57,19.40
2017,08,07,11,58,19.40
2017,08,07,11,59,19.40
2017,08,07,12,00,19.50
2017,08,07,12,01,19.60
2017,08,07,12,02,19.70
2017,08,07,12,03,19.80
2017,08,07,12,04,19.90
2017,08,07,12,05,19.90
2017,08,07,12,06,20.00
2017,08,07,12,07,20.00
2017,08,07,12,08,20.10
2017,08,07,12,09,20.20
2017,08,07,12,10,20.20
2017,08,07,12,11,20.10
2017,08,07,12,12,20.20
2017,08,07,12,13,20.20
2017,08,07,12,14,20.20
2017,08,07,12,15,20.20
2017,08,07,12,16,20.30
2017,08,07,12,17,20.30
2017,08,07,12,18,20.30
2017,08,07,12,19,20.30
2017,08,07,12,20,20.40
2017,08,07,12,21,20.40
2017,08,07,12,22,20.40
2017,08,07,12,23,20.40
2017,08,07,12,24,20.30
2017,08,07,12,25,20.30
2017,08,07,12,26,20.30
2017,08,07,12,27,20.30
2017,08,07,12,28,20.40
2017,08,07,12,29,20.40
2017,08,07,12,30,20.50
2017,08,07,12,31,20.50
2017,08,07,12,32,20.50
2017,08,07,12,33,20.50
2017,08,07,12,34,20.50
2017,08,07,12,35,20.50
2017,08,07,12,36,20.60
2017,08,07,12,37,20.60
2017,08,07,12,38,20.60
2017,08,07,12,39,20.70
2017,08,07,12,40,20.70
2017,08,07,12,41,20.80
2017,08,07,12,42,20.90
2017,08,07,12,43,20.90
2017,08,07,12,44,20.90
2017,08,07,12,45,20.90
2017,08,07,12,46,20.90
2017,08,07,12,47,21.00
2017,08,07,12,48,21.10
2017,08,07,12,49,21.10
2017,08,07,12,50,21.10
2017,08,07,12,51,21.10
2017,08,07,12,52,21.10
2017,08,07,12,53,21.10
2017,08,07,12,54,21.10
2017,08,07,12,55,21.10
2017,08,07,12,56,21.10
2017,08,07,12,57,21.10
2017,08,07,12,58,21.10
2017,08,07,12,59,21.10
2017,08,07,13,00,21.10
2017,08,07,13,01,21.10
2017,08,07,13,02,21.20
2017,08,07,13,03,21.30
2017,08,07,13,04,21.30
2017,08,07,13,05,21.30
2017,08,07,13,06,21.40
2017,08,07,13,07,21.40
2017,08,07,13,08,21.40
2017,08,07,13,09,21.40
2017,08,07,13,10,21.40
2017,08,07,13,11,21.50
2017,08,07,13,12,21.60
2017,08,07,13,13,21.70
2017,08,07,13,14,21.70
2017,08,07,13,15,21.80
2017,08,07,13,16,21.80
2017,08,07,13,17,21.90
2017,08,07,13,18,22.00
2017,08,07,13,19,22.10
2017,08,07,13,20,22.10
2017,08,07,13,21,22.10
2017,08,07,13,22,22.10
2017,08,07,13,23,22.20
2017,08,07,13,24,22.20
2017,08,07,13,25,22.30
2017,08,07,13,26,22.30
2017,08,07,13,27,22.40
2017,08,07,13,28,22.40
2017,08,07,13,29,22.40
2017,08,07,13,30,22.40
2017,08,07,13,31,22.40
2017,08,07,13,32,22.40
2017,08,07,13,33,22.40
2017,08,07,13,34,22.40
2017,08,07,13,35,22.40
2017,08,07,13,36,22.40
2017,08,07,13,37,22.40
2017,08,07,13,38,22.40
2017,08,07,13,39,22.40
2017,08,07,13,40,22.40
2017,08,07,13,41,22.40
2017,08,07,13,42,22.50
2017,08,07,13,43,22.50
2017,08,07,13,44,22.60
2017,08,07,13,45,22.70
2017,08,07,13,46,22.80
2017,08,07,13,47,22.80
2017,08,07,13,48,22.90
2017,08,07,13,49,22.90
2017,08,07,13,50,23.00
2017,08,07,13,51,23.00
2017,08,07,13,52,23.00
2017,08,07,13,53,22.90
2017,08,07,13,54,22.90
2017,08,07,13,55,22.90
2017,08,07,13,56,22.90
2017,08,07,13,57,22.90
2017,08,07,13,58,22.90
2017,08,07,13,59,23.00
2017,08,07,14,00,23.10
2017,08,07,14,01,23.10
2017,08,07,14,02,23.10
2017,08,07,14,03,23.10
2017,08,07,14,04,23.20
2017,08,07,14,05,23.20
2017,08,07,14,06,23.20
2017,08,07,14,07,23.10
2017,08,07,14,08,23.10
2017,08,07,14,09,23.10
2017,08,07,14,10,23.20
2017,08,07,14,11,23.20
2017,08,07,14,12,23.20
2017,08,07,14,13,23.20
2017,08,07,14,14,23.20
2017,08,07,14,15,23.30
2017,08,07,14,16,23.30
2017,08,07,14,17,23.40
2017,08,07,14,18,23.40
2017,08,07,14,19,23.40
2017,08,07,14,20,23.50
2017,08,07,14,21,23.50
2017,08,07,14,22,23.60
2017,08,07,14,23,23.60
2017,08,07,14,24,23.70
2017,08,07,14,25,23.80
2017,08,07,14,26,23.80
2017,08,07,14,27,23.80
2017,08,07,14,28,23.80
2017,08,07,14,29,23.80
2017,08,07,14,30,23.80
2017,08,07,14,31,23.90
2017,08,07,14,32,23.90
2017,08,07,14,33,23.90
2017,08,07,14,34,23.80
2017,08,07,14,35,23.80
2017,08,07,14,36,23.80
2017,08,07,14,37,23.70
2017,08,07,14,38,23.70
2017,08,07,14,39,23.70
2017,08,07,14,40,23.70
2017,08,07,14,41,23.70
2017,08,07,14,42,23.80
2017,08,07,14,43,23.90
2017,08,07,14,44,23.90
2017,08,07,14,45,23.90
2017,08,07,14,46,23.90
2017,08,07,14,47,23.90
2017,08,07,14,48,23.90
2017,08,07,14,49,23.90
2017,08,07,14,50,23.90
2017,08,07,14,51,23.90
2017,08,07,14,52,24.00
2017,08,07,14,53,24.10
2017,08,07,14,54,24.20
2017,08,07,14,55,24.30
2017,08,07,14,56,24.40
2017,08,07,14,57,24.60
2017,08,07,14,58,24.70
2017,08,07,14,59,24.80
2017,08,07,15,00,24.80
2017,08,07,15,01,24.80
2017,08,07,15,02,24.70
2017,08,07,15,03,24.60
2017,08,07,15,04,24.50
2017,08,07,15,05,24.40
2017,08,07,15,06,24.40
2017,08,07,15,07,24.40
2017,08,07,15,08,24.40
2017,08,07,15,09,24.40
2017,08,07,15,10,24.40
2017,08,07,15,11,24.40
2017,08,07,15,12,24.40
2017,08,07,15,13,24.50
2017,08,07,15,14,24.60
2017,08,07,15,15,24.70
2017,08,07,15,16,24.70
2017,08,07,15,17,24.80
2017,08,07,15,18,24.80
2017,08,07,15,19,24.80
2017,08,07,15,20,24.80
2017,08,07,15,21,24.80
2017,08,07,15,22,24.80
2017,08,07,15,23,24.80
2017,08,07,15,24,24.80
2017,08,07,15,25,24.80
2017,08,07,15,26,24.80
2017,08,07,15,27,24.80
2017,08,07,15,28,24.80
2017,08,07,15,29,24.80
2017,08,07,15,30,24.80
2017,08,07,15,31,24.80
2017,08,07,15,32,24.80
2017,08,07,15,33,24.80
2017,08,07,15,34,24.80
2017,08,07,15,35,24.80
2017,08,07,15,36,24.80
2017,08,07,15,37,24.80
2017,08,07,15,38,24.90
2017,08,07,15,39,24.90
2017,08,07,15,40,25.00
2017,08,07,15,41,25.00
2017,08,07,15,42,25.10
2017,08,07,15,43,25.10
2017,08,07,15,44,25.20
2017,08,07,15,45,25.20
2017,08,07,15,46,25.20
2017,08,07,15,47,25.10
2017,08,07,15,48,25.10
2017,08,07,15,49,25.10
2017,08,07,15,50,25.00
2017,08,07,15,51,25.00
2017,08,07,15,52,25.00
2017,08,07,15,53,25.00
2017,08,07,15,54,25.10
2017,08,07,15,55,25.20
2017,08,07,15,56,25.20
2017,08,07,15,57,25.30
2017,08,07,15,58,25.30
2017,08,07,15,59,25.30
2017,08,07,16,00,25.30
2017,08,07,16,01,25.30
2017,08,07,16,02,25.20
2017,08,07,16,03,25.10
2017,08,07,16,04,25.00
2017,08,07,16,05,24.90
2017,08,07,16,06,24.80
2017,08,07,16,07,24.80
2017,08,07,16,08,24.70
2017,08,07,16,09,24.70
2017,08,07,16,10,24.70
2017,08,07,16,11,24.70
2017,08,07,16,12,24.70
2017,08,07,16,13,24.60
2017,08,07,16,14,24.60
2017,08,07,16,15,24.60
2017,08,07,16,16,24.60
2017,08,07,16,17,24.60
2017,08,07,16,18,24.60
2017,08,07,16,19,24.60
2017,08,07,16,20,24.60
2017,08,07,16,21,24.60
2017,08,07,16,22,24.60
2017,08,07,16,23,24.60
2017,08,07,16,24,24.60
2017,08,07,16,25,24.50
2017,08,07,16,26,24.60
2017,08,07,16,27,24.60
2017,08,07,16,28,24.60
2017,08,07,16,29,24.70
2017,08,07,16,30,24.80
2017,08,07,16,31,24.80
2017,08,07,16,32,24.90
2017,08,07,16,33,24.90
2017,08,07,16,34,24.90
2017,08,07,16,35,25.00
2017,08,07,16,36,25.00
2017,08,07,16,37,25.10
2017,08,07,16,38,25.10
2017,08,07,16,39,25.10
2017,08,07,16,40,25.10
2017,08,07,16,41,25.10
2017,08,07,16,42,25.10
2017,08,07,16,43,25.00
2017,08,07,16,44,25.00
2017,08,07,16,45,25.00
2017,08,07,16,46,24.90
2017,08,07,16,47,24.90
2017,08,07,16,48,24.80
2017,08,07,16,49,24.70
2017,08,07,16,50,24.60
2017,08,07,16,51,24.60
2017,08,07,16,52,24.50
2017,08,07,16,53,24.50
2017,08,07,16,54,24.50
2017,08,07,16,55,24.40
2017,08,07,16,56,24.40
2017,08,07,16,57,24.40
2017,08,07,16,58,24.40
2017,08,07,16,59,24.40
2017,08,07,17,00,24.40
2017,08,07,17,01,24.40
2017,08,07,17,02,24.40
2017,08,07,17,03,24.40
2017,08,07,17,04,24.40
2017,08,07,17,05,24.50
2017,08,07,17,06,24.50
2017,08,07,17,07,24.50
2017,08,07,17,08,24.60
2017,08,07,17,09,24.60
2017,08,07,17,10,24.60
2017,08,07,17,11,24.70
2017,08,07,17,12,24.70
2017,08,07,17,13,24.70
2017,08,07,17,14,24.70
2017,08,07,17,15,24.70
2017,08,07,17,16,24.70
2017,08,07,17,17,24.70
2017,08,07,17,18,24.70
2017,08,07,17,19,24.60